Flugplatz Segelflugplatz Plätzer (UL)

Hier findest Du alle Informationen zum Flugplatz Segelflugplatz Plätzer (UL).

Informationen für Piloten zum Flugplatz Segelflugplatz Plätzer

Hier findest Du alle relevanten Informationen, die Du als Pilot benötigst, um Segelflugplatz Plätzer anzufliegen.

Flugplatz: Segelflugplatz Plätzer ICAO-Code: UL Flugplatz
Frequenz Turm: 122.205 Mhz GAFOR Gebiet: 47
Frequenz Ground: 122.205 Mhz Mogas: nein
Platzrunde: NO 2200 ft Landegebühr: -
Platzhöhe: - Sunrise: 07:00 Uhr UTC
Pisten: 16/34 - 600 m x 30 m, GRAS Sunset: 16:07 Uhr UTC

Mitglieder, die in Segelflugplatz Plätzer fliegen

Flugwetter am Flugplatz Segelflugplatz Plätzer

Die METAR Information stammen aus EDVK (81.48 km entfernt).

METAR Code:
2023/01/22 11:20
EDVK 221120Z 34003KT 300V030 9999 BKN011 00/M01 Q1028

Flugschulen am Flugplatz Segelflugplatz Plätzer

Am Flugplatz Segelflugplatz Plätzer gibt es 2 Flugschulen.

Benachbarte Flugplätze und Flugschulen

Es gibt 11 weitere Flugplätze in einem Umkreis von 50 km um den Flugplatz Segelflugplatz Plätzer.

Jetzt anmelden

Passwort vergessen

Umfrage Archiv

Sendet Ihr ADS-B und/oder FLARM?

Ja
84.7 %
Nein
15.3 %
Stimmen: 274 | Diskussion
Anzeige: Roland Aircraft
Statistik Alle Mitglieder

Aktuell sind 74 Besucher online, davon 2 Mitglieder und 72 Gäste.


Mitglieder online:
Heli  Uli-Light 

Anzeige: ULPower Aero Engines Anzeige: EasyVFR